Delta Virtual Airport Information Service

Portland International Airport

ICAO: KPDX Country: United States
Latitude: 45.5887 Longitude: -122.597
Latest Arrival : SKW3381 (A) (KABQ-KPDX) Latest Departure : JBU2656201 (KPDX-KLGB)


WX CaptureLIVE
Data provided by noaa.gov | Fetched at 09:07:04

METAR : KPDX 041353Z 00000KT 10SM FEW010 17/14 A3009 RMK AO2 SLP187 T01720139

TAF : KPDX 041120Z 0412/0512 32004KT P6SM SKC FM041300 33004KT P6SM SCT010 FM050100 34009KT P6SM SKC FM050600 VRB03KT P6SM SKC


Runway Data for KPDX
Data provided by openaviationdata.com

Runway ID Mag Var Hdg Length Elevation Surface ILS Freq ILS Id ILS Slope
3 18 26° 6995 ft 30 ft Asphalt -- -- --
10L 18 100° 7989 ft 30 ft Asphalt 111.3 IVDG 3
10R 18 100° 10985 ft 30 ft Asphalt 110.5 IPDX 3
21 18 206° 6995 ft 30 ft Asphalt 108.9 IGPO 0
28L 18 280° 10985 ft 30 ft Asphalt 110.5 IJMJ 3
28R 18 280° 7989 ft 30 ft Asphalt 111.3 IIAP 3

Portland International Airport, United States
Use only for reference purposes



Not for navigational purposes.